Regional Weather Roundup
Issued by NWS Jackson, KY

Home | Current Version | Previous Version | Text Only | Print | Product List | Glossary Off
Versions: 1 2 3 4 5 6 7 8 9 10 11 12 13 14 15 16 17 18 19 20 21 22 23 24 25 26 27 28

000
ASUS43 KJKL 272110
RWRJKL

EAST KENTUCKY HOURLY WEATHER ROUNDUP
NATIONAL WEATHER SERVICE JACKSON KY
500 PM EDT WED APR 27 2016

NOTE: "FAIR" INDICATES FEW OR NO CLOUDS BELOW 12,000 FEET WITH
NO SIGNIFICANT WEATHER AND/OR OBSTRUCTIONS TO VISIBILITY.

* THESE REPORTS ARE NOT UNDER NWS QUALITY CONTROL AND MAY NOT
  REPORT WEATHER SUCH AS PRECIPITATION AND FOG.

KYZ079-080-083-085-087-088-110-112-115-119-120-272200
...EASTERN KENTUCKY...

CITY           SKY/WX    TMP DP  RH WIND       PRES   REMARKS
JACKSON        MOSUNNY   69  63  81 CALM      29.85F
LONDON         TSTM      65  62  90 CALM      29.85R FOG
SOMERSET*      CLOUDY    72  63  73 SE5       29.82R
MONTICELLO*    MOSUNNY   81  63  54 W13       29.80F
WILLIAMSBURG*  CLOUDY    59  59 100 E3        29.83F
MIDDLESBORO*   CLOUDY    72  68  87 NE5       29.83S
HARLAN APT*    CLOUDY    72  61  68 CALM      29.85R
HAZARD APT*    LGT RAIN  68  68 100 CALM      29.85F
BLACK MTN*       N/A     66  61  82 N1          N/A
PIKE CO APT*   CLOUDY    70  62  75 W6        29.86R
BIG SANDY APT* DRIZZLE   69  64  82 CALM      29.85S
MOREHEAD APT*  RAIN      68  61  77 W6        29.87R
$$

KYZ035-036-041-042-044-050-067-078-099-272200
...CENTRAL KENTUCKY...

CITY           SKY/WX    TMP DP  RH WIND       PRES   REMARKS
MT STERLING*   LGT RAIN  64  64 100 CALM      29.86F
FLEMING/MASON* LGT RAIN  67  63  87 N3        29.86R
DANVILLE*      LGT RAIN  63  61  94 E6        29.85S
RICHMOND*      CLOUDY    64  61  88 N5        29.85R
LEXINGTON      RAIN      65  62  90 S5        29.85R FOG
FRANKFORT      CLOUDY    65  62  90 E6        29.80F
LOUISVILLE     CLOUDY    69  65  86 SE7       29.77F
LEBANON*         N/A     66  66 100 NE7       29.82S
BOWLING GREEN  CLOUDY    74  65  73 E8        29.75F
$$

KYZ091>093-OHZ055-061-077-WVZ005-015-034-035-042-272200
...SOUTHERN OHIO/WEST VIRGINIA...

CITY           SKY/WX    TMP DP  RH WIND       PRES   REMARKS
COVINGTON      LGT RAIN  62  58  86 E5        29.85S FOG
COLUMBUS       CLOUDY    60  49  66 NE8       29.87S
DAYTON         CLOUDY    60  50  69 E8        29.89S
WILMINGTON     CLOUDY    60  55  83 NE8       29.87R HAZE
HUNTINGTON     LGT RAIN  71  64  78 CALM      29.81S
CHARLESTON     PTSUNNY   74  61  63 NW5       29.82S
PINEVILLE*       N/A     74  56  51 MISG      29.90S
BECKLEY        PTSUNNY   71  56  58 W9        29.87S
$$

VAZ002-007-008-TNZ017-027-036-066-071-272200
...SOUTHWEST VIRGINIA/EAST TENNESSEE...

CITY           SKY/WX    TMP DP  RH WIND       PRES   REMARKS
WISE*          LGT RAIN  70  52  52 SE5       29.91S
BRISTOL        PTSUNNY   82  59  45 VRB5      29.82S
MORRISTOWN*    MOCLDY    82  57  42 W9G16     29.80S
SEVIERVILLE*   CLEAR     79  61  53 SW7       29.79R
KNOXVILLE      CLOUDY    84  56  38 SW16G24   29.78F
OAK RIDGE      PTSUNNY   83  58  42 S9        29.80S
CROSSVILLE     CLOUDY    77  57  50 VRB3      29.82F
NASHVILLE      CLOUDY    81  60  48 S8        29.74F
$$

...KEY TO REMARKS...
VSB - VISIBILITY IN MILES
WCI - WIND CHILL INDEX
HX  - HEAT INDEX

$$




USA.gov is the U.S. government's official web portal to all federal, state and local government web resources and services.